Regional Weather Roundup
Issued by NWS

Home | Current Version | Previous Version | Text Only | Print | Product List | Glossary On
Versions: 1 2 3 4 5 6 7 8 9 10 11 12 13 14 15 16 17 18 19 20 21 22 23 24 25 26 27 28 29 30 31 32 33 34 35 36 37 38 39 40 41 42 43 44 45 46 47 48 49
000
ASUS42 KKEY 011810
RWRKEY

FLORIDA REGIONAL WEATHER ROUNDUP FOR THE FLORIDA KEYS
NATIONAL WEATHER SERVICE KEY WEST FLORIDA
200 PM EDT WED OCT 01 2014

...SOUTH FLORIDA AND THE KEYS...

CITY           SKY/WX    TMP DP  RH WIND       PRES   REMARKS
FORT MYERS     SUNNY     88  74  63 W12       29.91F HX  96
SW REGIONAL AP PTSUNNY   87  76  69 W7G18     29.92F HX  97
NAPLES         MOSUNNY   88  76  67 W13       29.92F HX  99
MIAMI          MOSUNNY   90  70  51 W8        29.92F HX  95
WEST KENDALL   SUNNY     93  74  53 W13       29.92F HX 103
HOMESTEAD      SUNNY     88  73  62 SW7       29.92F HX  96
MARATHON       PTSUNNY   91  79  67 S7        29.94F HX 107
BOCA CHICA NAS MOSUNNY   89  76  65 SW10      29.94F HX 100
KEY WEST INTL  SUNNY     87  77  72 SW9       29.95F HX  99

...INTERNATIONAL WEATHER...

CITY           SKY/WX    TMP DP  RH WIND       PRES   REMARKS
NASSAU BAHAMAS MOSUNNY   90  81  74 N7        29.96F HX 108
CANCUN MEXICO  PTSUNNY   88  77  70 SE10      29.92F HX 100
COZUMEL MEXICO PTSUNNY   84  77  79 SE7       29.92F HX  94

ADJACENT COASTAL WATERS...

STATION/POSITION TIME  SKY/WX   TEMP    WIND        PRES    WAVE
                                AIR SEA DIR/SP/G            HT/PER
                 (UTC)          (F)     (DEG/KT/KT) (MB)    (FT/S)
PULASKI SHOAL LI 1700            85     220/  4/  5 1014.5F
SAND KEY         1800            84     230/  7/  8 1014.2F
SOMBRERO KEY     1800            84     230/  7/  8 1014.6F
LONG KEY         1800            85 87  270/  6/  7 1014.7F
MOLASSES REEF    1800            84 86  240/ 10/ 11 1013.7F
FOWEY ROCKS      1800            87 85  210/  9/ 10 1013.5F
Buoy 42080       NOT AVBL

$$


USA.gov is the U.S. government's official web portal to all federal, state and local government web resources and services.